User: anonymous   Login
Location: Unspecified
(0.0000°N, 0.0000°E)
Time: 14:25:45
(UTC+00:00)
Language:

deb r/b Ablestar - Orbit

View from above orbital plane
View from above orbital plane
View from above satellite
View from above satellite

Ground track
Ground track

The orbit data is extracted from the following two-line orbital elements,

1 00335U 61015DM  16037.53139590  .00000848  00000-0  46424-3 0  9999
2 00335  66.8420  62.7856 0034993  82.9930 277.5140 14.16393066791149
Epoch (UTC): 06 February 2016 12:45:12
Eccentricity: 0.0034993
inclination: 66.8420°
perigee height: 812 km
apogee height: 863 km
right ascension of ascending node: 62.7856°
argument of perigee: 82.9930°
revolutions per day: 14.16393066
mean anomaly at epoch: 277.5140°
orbit number at epoch: 79114

The dashed part of the orbit path shows where the satellite is in the earth's shadow,  

DLR